This is the latest recevied weather packets stored in our database for station/object OK1TBF-15. If no packets are shown the sender has not sent any weather packets the latest 10 day(s).
| Time | Temp. | Humidity | Pressure | Rain* | Wind** | Luminosity | Snow |
|---|---|---|---|---|---|---|---|
| 1778095065 | 13.89° C | 70% | 1005.9 hPa | - | - | - | - |
| 1778094465 | 14.44° C | 70% | 1005.9 hPa | - | - | - | - |
| 1778093865 | 14.44° C | 70% | 1005.8 hPa | - | - | - | - |
| 1778093265 | 14.44° C | 71% | 1005.9 hPa | - | - | - | - |
| 1778092666 | 14.44° C | 72% | 1005.7 hPa | - | - | - | - |
| 1778092065 | 14.44° C | 72% | 1005.4 hPa | - | - | - | - |
| 1778091466 | 15.56° C | 67% | 1005.4 hPa | - | - | - | - |
| 1778090866 | 16.11° C | 64% | 1004.9 hPa | - | - | - | - |
| 1778090265 | 15.56° C | 64% | 1004.7 hPa | - | - | - | - |
| 1778089665 | 16.11° C | 60% | 1004.7 hPa | - | - | - | - |
| 1778089065 | 16.11° C | 62% | 1004.7 hPa | - | - | - | - |
| 1778088465 | 16.67° C | 61% | 1004.8 hPa | - | - | - | - |
| 1778087865 | 16.67° C | 61% | 1004.8 hPa | - | - | - | - |
| 1778087265 | 17.22° C | 59% | 1004.8 hPa | - | - | - | - |
| 1778086665 | 16.67° C | 60% | 1004.8 hPa | - | - | - | - |
| 1778086065 | 16.67° C | 61% | 1005 hPa | - | - | - | - |
| 1778085465 | 16.67° C | 59% | 1005.1 hPa | - | - | - | - |
| 1778084865 | 18.89° C | 52% | 1005 hPa | - | - | - | - |
| 1778084265 | 20° C | 46% | 1004.7 hPa | - | - | - | - |
| 1778083665 | 19.44° C | 46% | 1004.9 hPa | - | - | - | - |
| 1778083065 | 20° C | 46% | 1005 hPa | - | - | - | - |
| 1778082465 | 20° C | 48% | 1005.2 hPa | - | - | - | - |
| 1778081641 | 20° C | 46% | 1005.4 hPa | - | - | - | - |
| 1778081047 | 19.44° C | 46% | 1005.5 hPa | - | - | - | - |
| 1778080579 | 20° C | 44% | 1005.5 hPa | - | - | - | - |
* Rain since midnight (hover to see other rain measurements)
** Current wind speed in m/s (hover to see current wind gust speed)